Location: Ago
(8.4667°N, 4.4833°E)
Time: 23:14:41
(UTC+00:00)

Cosmos 372 Rocket - Pass Details

Date: 18 September 2020
Orbit: 739 x 767 km, 74.1° (Epoch: 20 October)

Event Time Altitude Azimuth Distance (km) Brightness Sun altitude
Rises 18:32:15 0° 197° (SSW) 3,221 7.4 -13.7°
Reaches altitude 10° 18:34:37 10° 200° (SSW) 2,297 6.7 -14.3°
Maximum altitude 18:39:49 69° 283° (WNW) 818 4.3 -15.6°
Drops below altitude 10° 18:45:00 10° 6° (N) 2,297 6.5 -16.8°
Sets 18:47:23 0° 9° (N) 3,220 7.2 -17.4°
